Regional Weather Roundup
Issued by NWS

Home | Current Version | Previous Version | Text Only | Print | Product List | Glossary Off
Versions: 1 2 3 4 5 6 7 8 9 10 11 12 13 14 15 16 17 18 19 20 21 22 23 24 25 26 27

000
ASUS45 KCYS 240910
RWRWY

WYOMING REGIONAL WEATHER ROUNDUP
NATIONAL WEATHER SERVICE CHEYENNE WY
300 AM MDT WED AUG 24 2016

NOTE:  "FAIR" INDICATES FEW OR NO CLOUDS BELOW 12,000 FEET
WITH NO SIGNIFICANT WEATHER AND/OR OBSTRUCTIONS TO VISIBILITY.

WYZ001-241000-
YELLOWSTONE NATIONAL PARK

CITY           SKY/WX    TMP DP  RH WIND       PRES   REMARKS
LK YELLOWSTONE   N/A     39  23  52 CALM      30.35R
W YELLOWSTONE  NOT AVBL

$$
WYZ002>013-054>058-071-098>099-241000-
NORTHERN WYOMING

CITY           SKY/WX    TMP DP  RH WIND       PRES   REMARKS
JACKSON        FAIR      37  25  60 N6        30.25S WCI  33
CODY           FAIR      52  37  58 N6        30.27R
GREYBULL       FAIR      60  40  47 NW18      30.15R
WORLAND        FAIR      57  37  47 NW5       30.18R
SHERIDAN       FAIR      54  42  64 W9        30.22S
BUFFALO        FAIR      53  39  59 N10       30.24S
GILLETTE       FAIR      52  40  63 NW7       30.20R
HULETT         FAIR      57  39  51 NW7       30.20R
NEWCASTLE      FAIR      55  30  38 NW7       30.15S

$$
WYZ014>020-022>026-101>103-241000-
CENTRAL WYOMING

CITY           SKY/WX    TMP DP  RH WIND       PRES   REMARKS
BIG PINEY      FAIR      34  13  41 E6        30.27F WCI  29
PINEDALE       FAIR      34  21  60 NW7       30.28R WCI  28
DUBOIS         PTSUNNY   39  19  45 NW13      30.28F WCI  32
LANDER         FAIR      50  27  40 S3        30.21S
RIVERTON       FAIR      57  26  30 N10       30.22S
CASPER         FAIR      49  27  42 W7        30.21R
DOUGLAS        FAIR      58  27  30 NE8       30.18R

$$
WYZ021-027>030-104>119-241000-
SOUTHERN WYOMING

CITY           SKY/WX    TMP DP  RH WIND       PRES   REMARKS
EVANSTON       FAIR      57  19  22 CALM      30.27F
FORT BRIDGER   FAIR      54  14  21 W7        30.29F
ROCK SPRINGS   FAIR      51  16  24 E8        30.26S
DIXON          FAIR      51  40  68 CALM      30.27F
RAWLINS        FAIR      54  23  30 NW14      30.25R
SARATOGA       FAIR      54  36  50 SE6       30.26S
LARAMIE        CLOUDY    57  38  48 SW9       30.25S
CHEYENNE       FAIR      60  38  43 W7        30.19R
TORRINGTON     FAIR      57  35  43 NE8       30.11R
PINE BLUFFS    FAIR      61  37  41 SE7       30.16F

$$




USA.gov is the U.S. government's official web portal to all federal, state and local government web resources and services.